TimePST,TemperatureF,Dew PointF,Humidity,Sea Level PressureIn,VisibilityMPH,Wind Direction,Wind SpeedMPH,Gust SpeedMPH,PrecipitationIn,Events,Conditions,WindDirDegrees,DateUTC
12:53 AM,44.1,37.0,76,30.03,10.0,West,23.0,-,N/A,,Mostly Cloudy,260,2013-03-03 08:53:00
1:53 AM,42.1,33.1,70,30.06,10.0,West,23.0,33.4,N/A,,Overcast,280,2013-03-03 09:53:00
2:53 AM,41.0,30.9,67,30.11,10.0,West,17.3,-,N/A,,Overcast,280,2013-03-03 10:53:00
3:53 AM,37.9,28.9,70,30.12,10.0,West,23.0,-,N/A,,Scattered Clouds,270,2013-03-03 11:53:00
4:53 AM,36.0,27.0,70,30.14,10.0,West,19.6,-,N/A,,Clear,270,2013-03-03 12:53:00
5:53 AM,35.1,25.0,67,30.14,10.0,WSW,19.6,-,N/A,,Clear,250,2013-03-03 13:53:00
6:53 AM,34.0,24.1,67,30.16,10.0,West,18.4,-,N/A,,Clear,260,2013-03-03 14:53:00
7:53 AM,36.0,24.1,62,30.14,10.0,WSW,26.5,-,N/A,,Clear,250,2013-03-03 15:53:00
8:53 AM,39.0,24.1,55,30.16,10.0,West,25.3,-,N/A,,Clear,260,2013-03-03 16:53:00
9:53 AM,42.1,24.1,49,30.16,10.0,West,23.0,-,N/A,,Clear,260,2013-03-03 17:53:00
10:53 AM,44.1,24.1,45,30.15,10.0,West,20.7,29.9,N/A,,Clear,280,2013-03-03 18:53:00
11:53 AM,46.0,23.0,40,30.14,10.0,West,18.4,27.6,N/A,,Clear,280,2013-03-03 19:53:00
12:53 PM,46.9,18.0,32,30.12,10.0,West,11.5,23.0,N/A,,Clear,270,2013-03-03 20:53:00
1:53 PM,46.9,18.0,32,30.11,10.0,West,11.5,-,N/A,,Scattered Clouds,280,2013-03-03 21:53:00
2:53 PM,48.9,17.1,28,30.11,10.0,West,17.3,-,N/A,,Scattered Clouds,280,2013-03-03 22:53:00
3:53 PM,48.9,18.0,29,30.12,10.0,WNW,11.5,-,N/A,,Overcast,290,2013-03-03 23:53:00
4:53 PM,46.9,19.0,33,30.12,10.0,West,15.0,-,N/A,,Overcast,280,2013-03-04 00:53:00
5:53 PM,44.1,24.1,45,30.13,10.0,West,13.8,-,0.00,Rain,Light Rain,260,2013-03-04 01:53:00
6:53 PM,41.0,25.0,53,30.15,10.0,WNW,9.2,-,0.00,,Mostly Cloudy,290,2013-03-04 02:53:00
7:53 PM,37.0,23.0,57,30.17,10.0,North,9.2,-,N/A,,Mostly Cloudy,350,2013-03-04 03:53:00
8:53 PM,34.0,23.0,64,30.19,10.0,WNW,10.4,-,N/A,,Mostly Cloudy,290,2013-03-04 04:53:00
9:53 PM,35.1,21.0,57,30.19,10.0,Calm,Calm,-,N/A,,Overcast,0,2013-03-04 05:53:00
10:53 PM,28.9,19.9,69,30.22,10.0,Calm,Calm,-,N/A,,Scattered Clouds,0,2013-03-04 06:53:00
11:53 PM,34.0,19.0,54,30.22,10.0,SSE,3.5,-,N/A,,Clear,150,2013-03-04 07:53:00